• en Suisse
  • Liste des pays
  • À 7 jours
  • Température de l'eau
  • Carte satellitaire
  • Carte météo
  • Widgets météo
  • user-avatar
    Se connecter

    Météo par heure à Vennesla

    Ce jour, 23 Juillet, Lundi

    Heure Température Précipitation Vent Pression Humidité
    00:00 +15°C° 0 mm 5 m/s 735 mmHg 84%
    01:00 +15°C° 0 mm 5 m/s 736 mmHg 87%
    02:00 +14°C° 0 mm 5 m/s 736 mmHg 88%
    03:00 +14°C° 0 mm 5 m/s 736 mmHg 89%
    04:00 +14°C° 0 mm 5 m/s 736 mmHg 90%
    05:00 +15°C° 0 mm 5 m/s 736 mmHg 82%
    06:00 +17°C° 0 mm 5 m/s 736 mmHg 75%
    07:00 +19°C° 0 mm 5 m/s 736 mmHg 67%
    08:00 +21°C° 0 mm 5 m/s 736 mmHg 62%
    09:00 +23°C° 0 mm 5 m/s 737 mmHg 56%
    10:00 +26°C° 0 mm 5 m/s 737 mmHg 50%
    11:00 +27°C° 0 mm 5 m/s 737 mmHg 49%
    12:00 +27°C° 0 mm 6 m/s 737 mmHg 47%
    13:00 +28°C° 0 mm 6 m/s 737 mmHg 46%
    14:00 +28°C° 0 mm 6 m/s 737 mmHg 49%
    15:00 +27°C° 0 mm 6 m/s 737 mmHg 51%
    16:00 +27°C° 0 mm 7 m/s 737 mmHg 54%
    17:00 +26°C° 0 mm 6 m/s 737 mmHg 58%
    18:00 +24°C° 0 mm 6 m/s 737 mmHg 63%
    19:00 +23°C° 0 mm 6 m/s 737 mmHg 67%
    20:00 +21°C° 0 mm 5 m/s 737 mmHg 74%
    21:00 +20°C° 0 mm 5 m/s 737 mmHg 80%
    22:00 +18°C° 0 mm 4 m/s 737 mmHg 87%
    23:00 +18°C° 0 mm 4 m/s 737 mmHg 89%

    Demain, 24 Juillet, Mardi

    Heure Température Précipitation Vent Pression Humidité
    00:00 +17°C° 0 mm 4 m/s 737 mmHg 91%
    01:00 +17°C° 0 mm 3 m/s 737 mmHg 93%
    02:00 +16°C° 0 mm 3 m/s 737 mmHg 93%
    03:00 +16°C° 0 mm 3 m/s 737 mmHg 93%
    04:00 +16°C° 0 mm 3 m/s 737 mmHg 94%
    05:00 +18°C° 0 mm 3 m/s 737 mmHg 88%
    06:00 +19°C° 0 mm 3 m/s 737 mmHg 81%
    07:00 +20°C° 0 mm 3 m/s 737 mmHg 75%
    08:00 +22°C° 0 mm 3 m/s 738 mmHg 70%
    09:00 +23°C° 0 mm 4 m/s 738 mmHg 66%
    10:00 +25°C° 0 mm 4 m/s 738 mmHg 61%
    11:00 +25°C° 0 mm 4 m/s 738 mmHg 62%
    12:00 +25°C° 0 mm 5 m/s 738 mmHg 64%
    13:00 +25°C° 0 mm 5 m/s 738 mmHg 65%
    14:00 +25°C° 0 mm 5 m/s 738 mmHg 65%
    15:00 +25°C° 0 mm 5 m/s 738 mmHg 66%
    16:00 +25°C° 0 mm 5 m/s 738 mmHg 66%
    17:00 +25°C° 0 mm 5 m/s 738 mmHg 68%
    18:00 +23°C° 0 mm 4 m/s 738 mmHg 70%
    19:00 +23°C° 0 mm 4 m/s 737 mmHg 72%
    20:00 +21°C° 0 mm 3 m/s 738 mmHg 80%
    21:00 +19°C° 0 mm 3 m/s 738 mmHg 87%
    22:00 +18°C° 0 mm 2 m/s 738 mmHg 95%
    23:00 +17°C° 0 mm 2 m/s 738 mmHg 96%

    Après-demain, 25 Juillet, Mercredi

    Heure Température Précipitation Vent Pression Humidité
    00:00 +17°C° 0 mm 2 m/s 738 mmHg 97%
    01:00 +17°C° 0 mm 2 m/s 738 mmHg 97%
    02:00 +16°C° 0 mm 2 m/s 738 mmHg 97%
    03:00 +16°C° 0 mm 2 m/s 738 mmHg 97%
    04:00 +16°C° 0 mm 2 m/s 738 mmHg 97%
    05:00 +17°C° 0 mm 2 m/s 738 mmHg 91%
    06:00 +18°C° 0 mm 2 m/s 739 mmHg 85%
    07:00 +19°C° 0 mm 2 m/s 739 mmHg 78%
    08:00 +21°C° 0 mm 2 m/s 739 mmHg 69%
    09:00 +24°C° 0 mm 3 m/s 739 mmHg 60%
    10:00 +25°C° 0 mm 3 m/s 740 mmHg 52%
    11:00 +26°C° 0 mm 3 m/s 740 mmHg 49%
    12:00 +27°C° 0 mm 4 m/s 740 mmHg 46%
    13:00 +27°C° 0 mm 4 m/s 740 mmHg 43%
    14:00 +27°C° 0 mm 5 m/s 740 mmHg 43%
    15:00 +27°C° 0 mm 5 m/s 740 mmHg 43%
    16:00 +27°C° 0 mm 5 m/s 740 mmHg 43%
    17:00 +26°C° 0 mm 5 m/s 740 mmHg 45%
    18:00 +26°C° 0 mm 5 m/s 740 mmHg 47%
    19:00 +25°C° 0 mm 4 m/s 740 mmHg 49%
    20:00 +22°C° 0 mm 4 m/s 740 mmHg 56%
    21:00 +20°C° 0 mm 3 m/s 740 mmHg 62%
    22:00 +18°C° 0 mm 3 m/s 741 mmHg 68%
    23:00 +17°C° 0 mm 3 m/s 741 mmHg 69%

    26 Juillet, Jeudi

    Heure Température Précipitation Vent Pression Humidité
    00:00 +17°C° 0 mm 3 m/s 741 mmHg 70%
    01:00 +16°C° 0 mm 3 m/s 741 mmHg 71%
    02:00 +16°C° 0 mm 3 m/s 741 mmHg 71%
    03:00 +16°C° 0 mm 3 m/s 741 mmHg 71%
    04:00 +14°C° 0 mm 3 m/s 741 mmHg 71%
    05:00 +17°C° 0 mm 2 m/s 741 mmHg 65%
    06:00 +19°C° 0 mm 2 m/s 741 mmHg 59%
    07:00 +20°C° 0 mm 2 m/s 742 mmHg 54%
    08:00 +23°C° 0 mm 2 m/s 742 mmHg 48%
    09:00 +25°C° 0 mm 2 m/s 742 mmHg 42%
    10:00 +27°C° 0 mm 2 m/s 742 mmHg 36%
    11:00 +28°C° 0 mm 3 m/s 742 mmHg 34%
    12:00 +28°C° 0 mm 3 m/s 742 mmHg 33%
    13:00 +29°C° 0 mm 4 m/s 743 mmHg 31%
    14:00 +29°C° 0 mm 4 m/s 743 mmHg 32%
    15:00 +29°C° 0 mm 4 m/s 743 mmHg 33%
    16:00 +29°C° 0 mm 4 m/s 743 mmHg 34%
    17:00 +28°C° 0 mm 4 m/s 742 mmHg 38%
    18:00 +27°C° 0 mm 3 m/s 742 mmHg 41%
    19:00 +27°C° 0 mm 3 m/s 742 mmHg 45%
    20:00 +24°C° 0 mm 2 m/s 742 mmHg 53%
    21:00 +21°C° 0 mm 2 m/s 742 mmHg 62%
    22:00 +20°C° 0 mm 1 m/s 743 mmHg 70%
    23:00 +19°C° 0 mm 1 m/s 742 mmHg 70%

    27 Juillet, Vendredi

    Heure Température Précipitation Vent Pression Humidité
    00:00 +19°C° 0 mm 1 m/s 742 mmHg 70%
    01:00 +19°C° 0 mm 1 m/s 742 mmHg 70%
    02:00 +19°C° 0 mm 1 m/s 742 mmHg 69%
    03:00 +19°C° 0 mm 1 m/s 742 mmHg 69%
    04:00 +18°C° 0 mm 2 m/s 742 mmHg 69%
    05:00 +19°C° 0 mm 2 m/s 742 mmHg 65%
    06:00 +21°C° 0 mm 2 m/s 742 mmHg 60%
    07:00 +24°C° 0 mm 2 m/s 742 mmHg 56%
    08:00 +25°C° 0,1 mm 3 m/s 743 mmHg 54%
    09:00 +26°C° 0,1 mm 4 m/s 743 mmHg 53%
    10:00 +27°C° 0,1 mm 4 m/s 743 mmHg 51%
    11:00 +28°C° 0 mm 4 m/s 743 mmHg 48%
    12:00 +29°C° 0 mm 5 m/s 743 mmHg 45%
    13:00 +30°C° 0 mm 5 m/s 742 mmHg 42%
    14:00 +30°C° 0 mm 5 m/s 742 mmHg 40%
    15:00 +30°C° 0 mm 5 m/s 742 mmHg 39%
    16:00 +30°C° 0 mm 5 m/s 742 mmHg 38%
    17:00 +29°C° 0 mm 5 m/s 741 mmHg 40%
    18:00 +28°C° 0 mm 4 m/s 741 mmHg 42%
    19:00 +28°C° 0 mm 4 m/s 741 mmHg 44%
    20:00 +26°C° 0 mm 4 m/s 741 mmHg 50%
    21:00 +23°C° 0 mm 4 m/s 741 mmHg 55%
    22:00 +22°C° 0 mm 4 m/s 741 mmHg 61%
    23:00 +21°C° 0,1 mm 4 m/s 741 mmHg 65%

    28 Juillet, Samedi

    Heure Température Précipitation Vent Pression Humidité
    00:00 +21°C° 0,1 mm 4 m/s 740 mmHg 69%
    01:00 +21°C° 0,1 mm 5 m/s 740 mmHg 73%
    02:00 +21°C° 0,1 mm 4 m/s 740 mmHg 78%
    03:00 +20°C° 0,1 mm 4 m/s 740 mmHg 84%
    04:00 +19°C° 0,1 mm 4 m/s 740 mmHg 89%
    05:00 +19°C° 0,1 mm 5 m/s 740 mmHg 88%
    06:00 +20°C° 0,1 mm 5 m/s 740 mmHg 88%
    07:00 +20°C° 0,1 mm 6 m/s 740 mmHg 88%
    08:00 +20°C° 0,1 mm 6 m/s 739 mmHg 86%
    09:00 +21°C° 0,1 mm 6 m/s 739 mmHg 84%
    10:00 +21°C° 0,1 mm 7 m/s 739 mmHg 82%
    11:00 +22°C° 0,1 mm 7 m/s 739 mmHg 78%
    12:00 +23°C° 0,1 mm 7 m/s 738 mmHg 74%
    13:00 +23°C° 0,1 mm 7 m/s 738 mmHg 69%
    14:00 +23°C° 0,9 mm 6 m/s 738 mmHg 74%
    15:00 +23°C° 0,9 mm 6 m/s 738 mmHg 78%
    16:00 +22°C° 0,9 mm 5 m/s 737 mmHg 83%
    17:00 +22°C° 1 mm 4 m/s 737 mmHg 85%
    18:00 +22°C° 1 mm 3 m/s 738 mmHg 86%
    19:00 +21°C° 1 mm 2 m/s 738 mmHg 88%
    20:00 +20°C° 0,4 mm 2 m/s 738 mmHg 91%
    21:00 +20°C° 0,4 mm 1 m/s 738 mmHg 93%
    22:00 +19°C° 0,4 mm 1 m/s 739 mmHg 95%
    23:00 +19°C° 0 mm 1 m/s 739 mmHg 96%
    Voir plus